User: anonymous   Login
Location: Unspecified
(0.0000°N, 0.0000°E)
Time: 02:53:28
(UTC+00:00)
Language:

Cosmos 1602 - Orbit

View from above orbital plane
View from above orbital plane
View from above satellite
View from above satellite

Ground track
Ground track

The orbit data is extracted from the following two-line orbital elements,

1 15331U 84105A   18171.51359472 +.00000403 +00000-0 +20772-4 0  9994
2 15331 082.5368 322.2930 0016665 096.6587 263.6541 15.13327178837286
Epoch (UTC): 20 June 2018 12:19:34
Eccentricity: 0.0016665
inclination: 82.5368°
perigee height: 514 km
apogee height: 537 km
right ascension of ascending node: 322.2930°
argument of perigee: 96.6587°
revolutions per day: 15.13327178
mean anomaly at epoch: 263.6541°
orbit number at epoch: 83728

The dashed part of the orbit path shows where the satellite is in the earth's shadow,  

DLR